UAL2246 KDEN-KPSP

Flight info

Callsign UAL2246
Flight time 1h 57m
Altitude 38000
Route BAYLR6 TEHRU PLNDL Q86 YORRK RDBUL1
Aircraft A319/M-SDE3FGHIRWY/LB1

Departure

Time 2026-05-05 19:35
Airport Denver International Airport (KDEN)

Arrival

Time 2026-05-05 21:33
Airport Palm Springs International Airport (KPSP)
Time Latitude Longitude Altitude Speed Heading
2026-05-05 19:07 39.85931 -104.68099 5380 ft 0 kts 180°
2026-05-05 19:15 39.85932 -104.68099 5389 ft 1 kts 180°
2026-05-05 19:15 39.85945 -104.68099 5378 ft 3 kts 181°
2026-05-05 19:15 39.85965 -104.68098 5378 ft 3 kts 186°
2026-05-05 19:16 39.85985 -104.68094 5376 ft 3 kts 195°
2026-05-05 19:16 39.86004 -104.68086 5375 ft 3 kts 215°
2026-05-05 19:16 39.86015 -104.68071 5377 ft 2 kts 261°
2026-05-05 19:16 39.86016 -104.68060 5379 ft 1 kts 270°
2026-05-05 19:17 39.86016 -104.68059 5379 ft 0 kts 270°
2026-05-05 19:23 39.86016 -104.68061 5379 ft 1 kts 270°
2026-05-05 19:23 39.86016 -104.68082 5378 ft 3 kts 271°
2026-05-05 19:23 39.86017 -104.68122 5380 ft 6 kts 271°
2026-05-05 19:24 39.86011 -104.68182 5380 ft 7 kts 235°
2026-05-05 19:24 39.85954 -104.68195 5379 ft 9 kts 181°
2026-05-05 19:24 39.85891 -104.68196 5377 ft 9 kts 180°
2026-05-05 19:24 39.85834 -104.68204 5379 ft 7 kts 210°
2026-05-05 19:25 39.85824 -104.68260 5379 ft 6 kts 269°
2026-05-05 19:25 39.85824 -104.68305 5376 ft 0 kts 270°
2026-05-05 19:25 39.85824 -104.68314 5376 ft 0 kts 270°
2026-05-05 19:28 39.85824 -104.68327 5373 ft 3 kts 270°
2026-05-05 19:28 39.85825 -104.68363 5374 ft 5 kts 270°
2026-05-05 19:29 39.85811 -104.68397 5371 ft 4 kts 199°
2026-05-05 19:29 39.85794 -104.68396 5373 ft 1 kts 178°
2026-05-05 19:29 39.85789 -104.68396 5370 ft 1 kts 180°
2026-05-05 19:29 39.85779 -104.68396 5373 ft 3 kts 180°
2026-05-05 19:30 39.85740 -104.68397 5371 ft 7 kts 181°
2026-05-05 19:30 39.85689 -104.68398 5372 ft 8 kts 181°
2026-05-05 19:30 39.85636 -104.68399 5373 ft 7 kts 180°
2026-05-05 19:30 39.85591 -104.68399 5373 ft 6 kts 180°
2026-05-05 19:31 39.85549 -104.68400 5377 ft 7 kts 180°
2026-05-05 19:31 39.85490 -104.68400 5377 ft 10 kts 180°
2026-05-05 19:31 39.85404 -104.68401 5381 ft 15 kts 180°
2026-05-05 19:31 39.85306 -104.68404 5379 ft 14 kts 180°
2026-05-05 19:32 39.85215 -104.68425 5379 ft 13 kts 228°
2026-05-05 19:32 39.85206 -104.68538 5378 ft 12 kts 270°
2026-05-05 19:32 39.85203 -104.68661 5371 ft 15 kts 268°
2026-05-05 19:32 39.85200 -104.68811 5363 ft 18 kts 269°
2026-05-05 19:33 39.85197 -104.68982 5355 ft 20 kts 269°
2026-05-05 19:33 39.85196 -104.69169 5346 ft 22 kts 271°
2026-05-05 19:33 39.85200 -104.69374 5338 ft 22 kts 272°
2026-05-05 19:33 39.85201 -104.69500 5341 ft 9 kts 270°
2026-05-05 19:34 39.85201 -104.69567 5336 ft 6 kts 270°
2026-05-05 19:34 39.85201 -104.69605 5337 ft 3 kts 270°
2026-05-05 19:34 39.85201 -104.69632 5338 ft 4 kts 270°
2026-05-05 19:35 39.85332 -104.69659 5337 ft 38 kts
2026-05-05 19:35 39.85842 -104.69653 5340 ft 110 kts
2026-05-05 19:35 39.86833 -104.69639 5347 ft 172 kts
2026-05-05 19:35 39.88033 -104.69657 6096 ft 172 kts 359°
2026-05-05 19:36 39.89137 -104.70285 6915 ft 184 kts 317°
2026-05-05 19:36 39.89639 -104.71847 7389 ft 199 kts 269°
2026-05-05 19:36 39.89143 -104.73588 7598 ft 218 kts 232°
2026-05-05 19:36 39.88139 -104.75196 7867 ft 238 kts 224°
2026-05-05 19:37 39.86960 -104.76852 8188 ft 262 kts 223°
2026-05-05 19:37 39.85659 -104.78643 8751 ft 278 kts 224°
2026-05-05 19:37 39.84330 -104.80500 9624 ft 283 kts 225°
2026-05-05 19:37 39.83024 -104.82359 9920 ft 281 kts 225°
2026-05-05 19:38 39.81694 -104.84283 9975 ft 298 kts 225°
2026-05-05 19:38 39.80282 -104.86334 9983 ft 309 kts 225°
2026-05-05 19:38 39.78849 -104.88432 9982 ft 310 kts 226°
2026-05-05 19:38 39.77549 -104.90678 9975 ft 315 kts 242°
2026-05-05 19:39 39.76838 -104.93414 10399 ft 322 kts 252°
2026-05-05 19:39 39.76222 -104.96198 11355 ft 319 kts 253°
2026-05-05 19:39 39.75624 -104.98973 12226 ft 319 kts 253°
2026-05-05 19:39 39.75035 -105.01715 13080 ft 320 kts 253°
2026-05-05 19:40 39.74267 -105.04427 13895 ft 320 kts 248°
2026-05-05 19:40 39.73408 -105.07096 14607 ft 321 kts 248°
2026-05-05 19:40 39.72536 -105.09773 15288 ft 323 kts 248°
2026-05-05 19:40 39.71651 -105.12464 15960 ft 325 kts 248°
2026-05-05 19:41 39.70759 -105.15169 16620 ft 327 kts 248°
2026-05-05 19:41 39.69862 -105.17893 17279 ft 329 kts 248°
2026-05-05 19:41 39.68960 -105.20635 17948 ft 331 kts 248°
2026-05-05 19:41 39.68053 -105.23390 18529 ft 333 kts 248°
2026-05-05 19:42 39.67139 -105.26168 19078 ft 336 kts 248°
2026-05-05 19:42 39.66228 -105.28932 19585 ft 339 kts 248°
2026-05-05 19:42 39.65293 -105.31759 20104 ft 343 kts 248°
2026-05-05 19:42 39.64347 -105.34613 20624 ft 346 kts 248°
2026-05-05 19:43 39.63392 -105.37500 21102 ft 350 kts 248°
2026-05-05 19:43 39.62429 -105.40417 21619 ft 353 kts 248°
2026-05-05 19:43 39.61458 -105.43362 22113 ft 357 kts 248°
2026-05-05 19:43 39.60479 -105.46332 22615 ft 360 kts 248°
2026-05-05 19:44 39.59491 -105.49334 23115 ft 364 kts 248°
2026-05-05 19:44 39.58490 -105.52370 23512 ft 367 kts 248°
2026-05-05 19:44 39.57492 -105.55379 23946 ft 370 kts 248°
2026-05-05 19:44 39.56472 -105.58447 24388 ft 372 kts 248°
2026-05-05 19:45 39.55443 -105.61534 24822 ft 374 kts 248°
2026-05-05 19:45 39.54462 -105.64665 25189 ft 376 kts 250°
2026-05-05 19:45 39.53556 -105.67846 25650 ft 377 kts 251°
2026-05-05 19:45 39.52688 -105.71062 26097 ft 379 kts 252°
2026-05-05 19:46 39.51831 -105.74295 26524 ft 381 kts 252°
2026-05-05 19:46 39.50962 -105.77552 26911 ft 384 kts 252°
2026-05-05 19:46 39.50087 -105.80779 27254 ft 387 kts 251°
2026-05-05 19:46 39.49182 -105.84073 27664 ft 389 kts 251°
2026-05-05 19:47 39.48263 -105.87378 28044 ft 391 kts 251°
2026-05-05 19:47 39.47336 -105.90694 28432 ft 393 kts 251°
2026-05-05 19:47 39.46401 -105.94033 28788 ft 396 kts 251°
2026-05-05 19:47 39.45459 -105.97392 29165 ft 398 kts 251°
2026-05-05 19:48 39.44513 -106.00772 29513 ft 401 kts 251°
2026-05-05 19:48 39.43558 -106.04177 29795 ft 405 kts 251°
2026-05-05 19:48 39.42594 -106.07606 30118 ft 406 kts 250°
2026-05-05 19:48 39.41642 -106.10990 30451 ft 406 kts 250°
2026-05-05 19:49 39.40675 -106.14430 30767 ft 408 kts 250°
2026-05-05 19:49 39.40033 -106.16713 31014 ft 408 kts 250°
2026-05-05 19:49 39.38733 -106.21323 31461 ft 409 kts 250°
2026-05-05 19:49 39.37755 -106.24774 31796 ft 409 kts 250°
2026-05-05 19:50 39.36775 -106.28223 32426 ft 407 kts 250°
2026-05-05 19:50 39.35804 -106.31638 33004 ft 402 kts 250°
2026-05-05 19:50 39.34849 -106.35010 33587 ft 397 kts 250°
2026-05-05 19:50 39.33917 -106.38300 34056 ft 394 kts 250°
2026-05-05 19:51 39.32978 -106.41613 34392 ft 392 kts 250°
2026-05-05 19:51 39.32041 -106.44913 34699 ft 391 kts 250°
2026-05-05 19:51 39.31108 -106.48195 35016 ft 389 kts 249°
2026-05-05 19:51 39.30176 -106.51462 35336 ft 387 kts 249°
2026-05-05 19:52 39.29247 -106.54711 35653 ft 385 kts 249°
2026-05-05 19:52 39.28322 -106.57943 35959 ft 383 kts 249°
2026-05-05 19:52 39.27398 -106.61163 36233 ft 381 kts 249°
2026-05-05 19:52 39.26490 -106.64315 36498 ft 379 kts 249°
2026-05-05 19:53 39.25577 -106.67494 36857 ft 377 kts 249°
2026-05-05 19:53 39.24640 -106.70641 37245 ft 374 kts 245°
2026-05-05 19:53 39.23360 -106.73558 37504 ft 375 kts 236°
2026-05-05 19:53 39.21757 -106.76215 37754 ft 375 kts 233°
2026-05-05 19:54 39.20136 -106.78855 37866 ft 375 kts 233°
2026-05-05 19:54 39.16918 -106.84108 37888 ft 373 kts 233°
2026-05-05 19:55 39.13733 -106.89319 37644 ft 372 kts 233°
2026-05-05 19:55 39.10523 -106.94552 37674 ft 372 kts 233°
2026-05-05 19:56 39.07317 -106.99765 37670 ft 372 kts 233°
2026-05-05 19:56 39.04109 -107.04976 37698 ft 372 kts 233°
2026-05-05 19:57 39.00920 -107.10171 37701 ft 372 kts 233°
2026-05-05 19:57 38.97698 -107.15401 37697 ft 374 kts 233°
2026-05-05 19:58 38.94463 -107.20645 37710 ft 374 kts 233°
2026-05-05 19:58 38.91231 -107.25867 37739 ft 374 kts 233°
2026-05-05 19:59 38.88017 -107.31049 37742 ft 373 kts 233°
2026-05-05 19:59 38.84784 -107.36250 37743 ft 373 kts 234°
2026-05-05 20:00 38.81543 -107.41458 37736 ft 374 kts 233°
2026-05-05 20:00 38.78297 -107.46673 37719 ft 374 kts 233°
2026-05-05 20:01 38.75040 -107.51897 37728 ft 376 kts 233°
2026-05-05 20:01 38.71785 -107.57089 37722 ft 376 kts 233°
2026-05-05 20:02 38.68511 -107.62316 37711 ft 376 kts 233°
2026-05-05 20:02 38.65236 -107.67538 37697 ft 376 kts 233°
2026-05-05 20:03 38.61968 -107.72751 37709 ft 375 kts 233°
2026-05-05 20:03 38.58720 -107.77918 37697 ft 376 kts 233°
2026-05-05 20:04 38.55440 -107.83127 37885 ft 376 kts 232°
2026-05-05 20:04 38.52153 -107.88339 37883 ft 377 kts 232°
2026-05-05 20:05 38.48869 -107.93546 37885 ft 377 kts 232°
2026-05-05 20:05 38.45587 -107.98712 37883 ft 377 kts 232°
2026-05-05 20:06 38.42286 -108.03908 37853 ft 377 kts 232°
2026-05-05 20:06 38.38984 -108.09109 37821 ft 377 kts 232°
2026-05-05 20:07 38.35686 -108.14296 37795 ft 376 kts 232°
2026-05-05 20:07 38.32421 -108.19425 37775 ft 375 kts 232°
2026-05-05 20:08 38.29139 -108.24564 37756 ft 374 kts 232°
2026-05-05 20:08 38.25858 -108.29695 37752 ft 373 kts 232°
2026-05-05 20:09 38.22582 -108.34810 37750 ft 373 kts 232°
2026-05-05 20:09 38.19309 -108.39921 37759 ft 373 kts 232°
2026-05-05 20:10 38.16052 -108.44988 37743 ft 373 kts 232°
2026-05-05 20:10 38.12758 -108.50105 37729 ft 375 kts 232°
2026-05-05 20:11 38.09454 -108.55232 37722 ft 376 kts 232°
2026-05-05 20:11 38.06140 -108.60367 37727 ft 375 kts 231°
2026-05-05 20:12 38.02857 -108.65451 37743 ft 374 kts 232°
2026-05-05 20:12 37.99558 -108.70555 37747 ft 374 kts 231°
2026-05-05 20:13 37.96258 -108.75643 37758 ft 373 kts 232°
2026-05-05 20:13 37.92960 -108.80721 37759 ft 374 kts 231°
2026-05-05 20:14 37.89676 -108.85775 37749 ft 375 kts 231°
2026-05-05 20:14 37.86355 -108.90872 37744 ft 375 kts 231°
2026-05-05 20:15 37.83026 -108.95969 37753 ft 376 kts 231°
2026-05-05 20:15 37.79699 -109.01069 37755 ft 376 kts 231°
2026-05-05 20:16 37.76370 -109.06154 37767 ft 375 kts 231°
2026-05-05 20:16 37.73077 -109.11178 37788 ft 374 kts 231°
2026-05-05 20:17 37.69750 -109.16251 37816 ft 376 kts 231°
2026-05-05 20:17 37.66403 -109.21348 37850 ft 377 kts 231°
2026-05-05 20:18 37.63071 -109.26406 37874 ft 377 kts 231°
2026-05-05 20:18 37.59713 -109.31493 37904 ft 377 kts 231°
2026-05-05 20:19 37.56353 -109.36571 37934 ft 377 kts 231°
2026-05-05 20:19 37.52992 -109.41646 37937 ft 377 kts 231°
2026-05-05 20:20 37.49654 -109.46686 37948 ft 377 kts 231°
2026-05-05 20:20 37.46289 -109.51757 37890 ft 377 kts 231°
2026-05-05 20:21 37.42924 -109.56822 37874 ft 377 kts 231°
2026-05-05 20:21 37.39564 -109.61871 37846 ft 376 kts 231°
2026-05-05 20:22 37.36225 -109.66879 37814 ft 376 kts 231°
2026-05-05 20:22 37.32866 -109.71902 37741 ft 375 kts 231°
2026-05-05 20:23 37.29508 -109.76928 37733 ft 376 kts 231°
2026-05-05 20:23 37.26153 -109.81951 37743 ft 376 kts 231°
2026-05-05 20:24 37.22802 -109.86942 37725 ft 377 kts 231°
2026-05-05 20:24 37.19413 -109.91976 37723 ft 378 kts 231°
2026-05-05 20:25 37.16016 -109.97023 37721 ft 379 kts 231°
2026-05-05 20:25 37.12623 -110.02069 37727 ft 378 kts 231°
2026-05-05 20:26 37.09225 -110.07105 37732 ft 378 kts 231°
2026-05-05 20:26 37.05848 -110.12092 37736 ft 378 kts 231°
2026-05-05 20:27 37.02448 -110.17121 37740 ft 379 kts 231°
2026-05-05 20:27 36.99041 -110.22155 37740 ft 379 kts 231°
2026-05-05 20:28 36.95619 -110.27190 37746 ft 380 kts 230°
2026-05-05 20:28 36.92216 -110.32194 37747 ft 380 kts 231°
2026-05-05 20:29 36.88789 -110.37232 37760 ft 381 kts 231°
2026-05-05 20:29 36.85349 -110.42266 37761 ft 381 kts 230°
2026-05-05 20:30 36.81920 -110.47281 37821 ft 379 kts 230°
2026-05-05 20:30 36.78525 -110.52238 37802 ft 378 kts 231°
2026-05-05 20:31 36.75106 -110.57244 37788 ft 379 kts 230°
2026-05-05 20:31 36.71675 -110.62241 37786 ft 380 kts 230°
2026-05-05 20:32 36.68233 -110.67236 37785 ft 380 kts 230°
2026-05-05 20:32 36.64794 -110.72233 37784 ft 380 kts 230°
2026-05-05 20:33 36.61376 -110.77200 37783 ft 380 kts 230°
2026-05-05 20:33 36.57930 -110.82193 37794 ft 381 kts 230°
2026-05-05 20:34 36.54465 -110.87193 37780 ft 382 kts 230°
2026-05-05 20:34 36.50993 -110.92217 37774 ft 383 kts 230°
2026-05-05 20:35 36.47539 -110.97212 37781 ft 384 kts 230°
2026-05-05 20:35 36.44048 -111.02239 37781 ft 385 kts 230°
2026-05-05 20:36 36.40549 -111.07266 37781 ft 385 kts 230°
2026-05-05 20:36 36.37042 -111.12290 37786 ft 385 kts 230°
2026-05-05 20:37 36.33555 -111.17287 37794 ft 386 kts 230°
2026-05-05 20:37 36.30036 -111.22327 37781 ft 387 kts 230°
2026-05-05 20:38 36.26507 -111.27381 37770 ft 388 kts 230°
2026-05-05 20:38 36.22967 -111.32430 37769 ft 388 kts 230°
2026-05-05 20:39 36.19456 -111.37430 37790 ft 387 kts 230°
2026-05-05 20:39 36.15930 -111.42441 37787 ft 385 kts 230°
2026-05-05 20:40 36.12409 -111.47432 37790 ft 385 kts 230°
2026-05-05 20:40 36.08895 -111.52420 37794 ft 384 kts 230°
2026-05-05 20:41 36.05388 -111.57400 37793 ft 384 kts 230°
2026-05-05 20:41 36.01898 -111.62333 37791 ft 384 kts 229°
2026-05-05 20:42 35.98385 -111.67296 37789 ft 384 kts 229°
2026-05-05 20:42 35.94865 -111.72249 37803 ft 384 kts 229°
2026-05-05 20:43 35.91346 -111.77198 37820 ft 383 kts 229°
2026-05-05 20:43 35.87860 -111.82104 37872 ft 383 kts 229°
2026-05-05 20:44 35.84365 -111.87051 37941 ft 382 kts 232°
2026-05-05 20:44 35.81629 -111.92656 37966 ft 382 kts 240°
2026-05-05 20:45 35.77743 -112.01249 37993 ft 383 kts 240°
2026-05-05 20:45 35.75158 -112.06933 37988 ft 383 kts 240°
2026-05-05 20:46 35.72551 -112.12652 37968 ft 383 kts 239°
2026-05-05 20:46 35.69893 -112.18362 37937 ft 386 kts 239°
2026-05-05 20:47 35.67195 -112.24080 37897 ft 387 kts 239°
2026-05-05 20:47 35.64508 -112.29770 37865 ft 388 kts 239°
2026-05-05 20:48 35.61801 -112.35509 37832 ft 388 kts 239°
2026-05-05 20:48 35.59096 -112.41250 37827 ft 388 kts 239°
2026-05-05 20:49 35.56414 -112.47018 37838 ft 389 kts 239°
2026-05-05 20:49 35.53724 -112.52800 37798 ft 391 kts 239°
2026-05-05 20:50 35.51482 -112.57603 37816 ft 390 kts 239°
2026-05-05 20:50 35.48341 -112.64313 37829 ft 390 kts 239°
2026-05-05 20:51 35.45640 -112.70073 37832 ft 389 kts 239°
2026-05-05 20:51 35.42941 -112.75833 37836 ft 389 kts 239°
2026-05-05 20:52 35.40235 -112.81585 37838 ft 390 kts 239°
2026-05-05 20:52 35.37534 -112.87304 37822 ft 391 kts 239°
2026-05-05 20:53 35.34807 -112.93071 37819 ft 391 kts 239°
2026-05-05 20:53 35.32075 -112.98846 37822 ft 392 kts 239°
2026-05-05 20:54 35.29342 -113.04616 37825 ft 392 kts 239°
2026-05-05 20:54 35.26617 -113.10349 37825 ft 392 kts 239°
2026-05-05 20:55 35.23868 -113.16126 37824 ft 393 kts 239°
2026-05-05 20:55 35.21119 -113.21915 37819 ft 394 kts 239°
2026-05-05 20:56 35.18358 -113.27713 37817 ft 395 kts 239°
2026-05-05 20:56 35.15587 -113.33511 37818 ft 395 kts 239°
2026-05-05 20:57 35.12814 -113.39309 37811 ft 395 kts 239°
2026-05-05 20:57 35.10056 -113.45050 37835 ft 394 kts 239°
2026-05-05 20:58 35.07277 -113.50826 37827 ft 395 kts 239°
2026-05-05 20:58 35.04497 -113.56603 37831 ft 395 kts 239°
2026-05-05 20:59 35.01718 -113.62390 37834 ft 395 kts 239°
2026-05-05 20:59 34.98924 -113.68173 37825 ft 396 kts 239°
2026-05-05 21:00 34.96114 -113.73986 36938 ft 405 kts 239°
2026-05-05 21:00 34.94656 -113.76994 35886 ft 418 kts 239°
2026-05-05 21:00 34.93195 -113.80009 35299 ft 417 kts 239°
2026-05-05 21:01 34.91730 -113.83033 34898 ft 412 kts 239°
2026-05-05 21:01 34.90280 -113.86018 34464 ft 407 kts 239°
2026-05-05 21:01 34.88846 -113.88971 34044 ft 403 kts 239°
2026-05-05 21:01 34.87403 -113.91886 33543 ft 400 kts 236°
2026-05-05 21:02 34.85645 -113.94489 33039 ft 397 kts 225°
2026-05-05 21:02 34.83618 -113.96756 32558 ft 394 kts 224°
2026-05-05 21:02 34.81606 -113.98991 32085 ft 390 kts 224°
2026-05-05 21:02 34.79614 -114.01214 31617 ft 387 kts 224°
2026-05-05 21:03 34.78304 -114.02678 31320 ft 385 kts 224°
2026-05-05 21:03 34.76339 -114.04871 30868 ft 382 kts 224°
2026-05-05 21:03 34.74392 -114.07043 30451 ft 377 kts 224°
2026-05-05 21:03 34.71840 -114.09879 29866 ft 373 kts 223°
2026-05-05 21:04 34.69931 -114.11992 29416 ft 369 kts 223°
2026-05-05 21:04 34.68047 -114.14077 29022 ft 364 kts 224°
2026-05-05 21:04 34.66186 -114.16134 28629 ft 360 kts 223°
2026-05-05 21:04 34.64967 -114.17483 28379 ft 357 kts 223°
2026-05-05 21:05 34.63137 -114.19507 28005 ft 354 kts 224°
2026-05-05 21:05 34.61464 -114.21666 27753 ft 351 kts 230°
2026-05-05 21:05 34.59343 -114.24650 27651 ft 353 kts 230°
2026-05-05 21:05 34.57733 -114.26897 27547 ft 353 kts 230°
2026-05-05 21:06 34.56639 -114.28420 27469 ft 353 kts 230°
2026-05-05 21:06 34.55025 -114.30664 27343 ft 353 kts 230°
2026-05-05 21:06 34.53428 -114.32882 27226 ft 353 kts 230°
2026-05-05 21:06 34.51814 -114.35125 27106 ft 353 kts 230°
2026-05-05 21:07 34.50200 -114.37369 26978 ft 353 kts 230°
2026-05-05 21:07 34.48586 -114.39613 26815 ft 354 kts 230°
2026-05-05 21:07 34.46968 -114.41866 26692 ft 355 kts 230°
2026-05-05 21:07 34.44824 -114.44856 26529 ft 355 kts 230°
2026-05-05 21:08 34.43203 -114.47109 26405 ft 354 kts 230°
2026-05-05 21:08 34.42113 -114.48619 26327 ft 351 kts 230°
2026-05-05 21:08 34.40528 -114.50812 26206 ft 350 kts 230°
2026-05-05 21:08 34.38925 -114.53028 26094 ft 350 kts 230°
2026-05-05 21:09 34.37325 -114.55244 25975 ft 350 kts 230°
2026-05-05 21:09 34.35724 -114.57464 25858 ft 350 kts 230°
2026-05-05 21:09 34.34126 -114.59679 25739 ft 350 kts 230°
2026-05-05 21:09 34.32525 -114.61895 25618 ft 350 kts 230°
2026-05-05 21:10 34.30924 -114.64104 25498 ft 349 kts 230°
2026-05-05 21:10 34.29318 -114.66315 25388 ft 350 kts 230°
2026-05-05 21:10 34.27739 -114.68491 25281 ft 349 kts 230°
2026-05-05 21:10 34.26136 -114.70700 25150 ft 349 kts 230°
2026-05-05 21:11 34.24531 -114.72910 25030 ft 349 kts 230°
2026-05-05 21:11 34.22929 -114.75116 24915 ft 350 kts 230°
2026-05-05 21:11 34.21325 -114.77327 24804 ft 350 kts 230°
2026-05-05 21:11 34.19203 -114.80249 24644 ft 349 kts 230°
2026-05-05 21:12 34.18119 -114.81739 24562 ft 349 kts 230°
2026-05-05 21:12 34.16514 -114.83942 24444 ft 349 kts 230°
2026-05-05 21:12 34.14911 -114.86140 24321 ft 349 kts 230°
2026-05-05 21:12 34.13331 -114.88311 24203 ft 349 kts 230°
2026-05-05 21:13 34.11727 -114.90510 24082 ft 349 kts 230°
2026-05-05 21:13 34.10128 -114.92697 23966 ft 348 kts 230°
2026-05-05 21:13 34.08531 -114.94881 23846 ft 346 kts 230°
2026-05-05 21:13 34.06942 -114.97056 23729 ft 346 kts 230°
2026-05-05 21:14 34.05355 -114.99230 23614 ft 345 kts 230°
2026-05-05 21:14 34.03766 -115.01405 23492 ft 346 kts 230°
2026-05-05 21:14 34.02175 -115.03588 23367 ft 347 kts 230°
2026-05-05 21:14 34.00582 -115.05769 23241 ft 347 kts 230°
2026-05-05 21:15 33.99007 -115.07918 23119 ft 346 kts 230°
2026-05-05 21:15 33.97433 -115.10111 23002 ft 345 kts 234°
2026-05-05 21:15 33.96180 -115.12555 22899 ft 343 kts 246°
2026-05-05 21:15 33.95374 -115.15256 22386 ft 343 kts 258°
2026-05-05 21:16 33.94926 -115.18071 21936 ft 341 kts 260°
2026-05-05 21:16 33.94489 -115.20866 21486 ft 339 kts 260°
2026-05-05 21:16 33.94046 -115.23643 21035 ft 336 kts 259°
2026-05-05 21:16 33.93608 -115.26363 20597 ft 334 kts 259°
2026-05-05 21:17 33.93163 -115.29097 20165 ft 332 kts 259°
2026-05-05 21:17 33.92716 -115.31813 19730 ft 330 kts 259°
2026-05-05 21:17 33.92270 -115.34511 19290 ft 328 kts 259°
2026-05-05 21:17 33.91831 -115.37204 18816 ft 328 kts 259°
2026-05-05 21:18 33.91391 -115.39893 18381 ft 327 kts 259°
2026-05-05 21:18 33.90953 -115.42569 17914 ft 325 kts 259°
2026-05-05 21:18 33.90518 -115.45224 17476 ft 322 kts 259°
2026-05-05 21:18 33.90094 -115.47819 17057 ft 319 kts 259°
2026-05-05 21:19 33.89668 -115.50428 16641 ft 316 kts 259°
2026-05-05 21:19 33.89240 -115.53017 16227 ft 314 kts 259°
2026-05-05 21:19 33.88813 -115.55587 15817 ft 312 kts 259°
2026-05-05 21:19 33.88390 -115.58139 15403 ft 310 kts 259°
2026-05-05 21:20 33.87975 -115.60677 14991 ft 308 kts 261°
2026-05-05 21:20 33.87841 -115.63241 14562 ft 307 kts 270°
2026-05-05 21:20 33.87854 -115.65811 14118 ft 306 kts 271°
2026-05-05 21:20 33.87860 -115.68338 13678 ft 306 kts 270°
2026-05-05 21:21 33.87861 -115.70895 13205 ft 304 kts 270°
2026-05-05 21:21 33.87859 -115.73432 12764 ft 302 kts 270°
2026-05-05 21:21 33.87857 -115.75948 12329 ft 300 kts 271°
2026-05-05 21:21 33.87855 -115.78446 11898 ft 298 kts 271°
2026-05-05 21:22 33.87853 -115.80934 11470 ft 296 kts 271°
2026-05-05 21:22 33.87848 -115.83409 11043 ft 295 kts 271°
2026-05-05 21:22 33.87843 -115.85877 10617 ft 295 kts 270°
2026-05-05 21:22 33.87838 -115.88311 10197 ft 295 kts 271°
2026-05-05 21:23 33.87836 -115.90776 9775 ft 294 kts 271°
2026-05-05 21:23 33.87834 -115.93201 9538 ft 287 kts 271°
2026-05-05 21:23 33.87633 -115.95551 9095 ft 281 kts 257°
2026-05-05 21:23 33.86920 -115.97722 8628 ft 278 kts 241°
2026-05-05 21:24 33.85892 -115.99697 8477 ft 279 kts 239°
2026-05-05 21:24 33.84869 -116.01676 8280 ft 278 kts 239°
2026-05-05 21:24 33.83865 -116.03638 8099 ft 271 kts 239°
2026-05-05 21:24 33.82902 -116.05528 7895 ft 259 kts 240°
2026-05-05 21:25 33.81988 -116.07323 7800 ft 253 kts 240°
2026-05-05 21:25 33.81202 -116.09219 7628 ft 255 kts 253°
2026-05-05 21:25 33.80661 -116.11244 7301 ft 255 kts 251°
2026-05-05 21:25 33.80043 -116.13284 6734 ft 265 kts 250°
2026-05-05 21:26 33.79405 -116.15381 6328 ft 268 kts 250°
2026-05-05 21:26 33.78765 -116.17475 5981 ft 267 kts 251°
2026-05-05 21:26 33.77959 -116.19427 5861 ft 254 kts 234°
2026-05-05 21:26 33.76888 -116.21073 5744 ft 245 kts 233°
2026-05-05 21:27 33.75892 -116.22603 5622 ft 227 kts 233°
2026-05-05 21:27 33.74952 -116.24045 5504 ft 213 kts 233°
2026-05-05 21:27 33.74051 -116.25427 5370 ft 208 kts 234°
2026-05-05 21:27 33.73166 -116.26788 5245 ft 204 kts 235°
2026-05-05 21:28 33.72306 -116.28110 5051 ft 198 kts 234°
2026-05-05 21:28 33.71468 -116.29398 4827 ft 193 kts 235°
2026-05-05 21:28 33.70874 -116.30798 4582 ft 186 kts 258°
2026-05-05 21:28 33.70776 -116.32327 4346 ft 183 kts 281°
2026-05-05 21:29 33.71149 -116.33768 4104 ft 181 kts 302°
2026-05-05 21:29 33.71760 -116.35090 3862 ft 182 kts 302°
2026-05-05 21:29 33.72363 -116.36405 3619 ft 182 kts 301°
2026-05-05 21:29 33.72971 -116.37735 3380 ft 181 kts 300°
2026-05-05 21:30 33.73575 -116.39062 3145 ft 182 kts 299°
2026-05-05 21:30 33.74278 -116.40314 2887 ft 181 kts 312°
2026-05-05 21:30 33.75153 -116.41413 2620 ft 182 kts 312°
2026-05-05 21:30 33.76021 -116.42510 2344 ft 181 kts 312°
2026-05-05 21:31 33.76890 -116.43610 2091 ft 179 kts 312°
2026-05-05 21:31 33.77728 -116.44669 1796 ft 168 kts 313°
2026-05-05 21:31 33.78454 -116.45595 1536 ft 143 kts 315°
2026-05-05 21:31 33.79020 -116.46516 1334 ft 133 kts 309°
2026-05-05 21:32 33.79590 -116.47381 1171 ft 136 kts 317°
2026-05-05 21:32 33.80244 -116.48225 1075 ft 139 kts 315°
2026-05-05 21:32 33.80921 -116.48972 814 ft 128 kts 328°
2026-05-05 21:32 33.81629 -116.49617 571 ft 127 kts 334°
2026-05-05 21:33 33.82316 -116.50198 413 ft 109 kts 330°
2026-05-05 21:33 33.82839 -116.50647 432 ft 74 kts 323°
2026-05-05 21:33 33.83174 -116.50950 434 ft 48 kts 322°
2026-05-05 21:33 33.83350 -116.51109 451 ft 20 kts 314°
2026-05-05 21:34 33.83353 -116.51164 453 ft 2 kts 242°
2026-05-05 21:34 33.83278 -116.51193 451 ft 19 kts 184°
2026-05-05 21:34 33.83178 -116.51168 449 ft 16 kts 143°
2026-05-05 21:34 33.83071 -116.51075 442 ft 21 kts 143°
2026-05-05 21:35 33.82944 -116.50960 435 ft 23 kts 144°
2026-05-05 21:35 33.82815 -116.50835 431 ft 26 kts 145°
2026-05-05 21:35 33.82689 -116.50723 431 ft 17 kts 143°
2026-05-05 21:35 33.82603 -116.50647 422 ft 17 kts 144°
2026-05-05 21:36 33.82497 -116.50553 425 ft 21 kts 143°
2026-05-05 21:36 33.82371 -116.50440 414 ft 21 kts 145°
2026-05-05 21:36 33.82297 -116.50439 415 ft 11 kts 233°
2026-05-05 21:36 33.82250 -116.50514 421 ft 10 kts 233°
2026-05-05 21:37 33.82207 -116.50566 419 ft 8 kts 206°
2026-05-05 21:37 33.82147 -116.50570 421 ft 10 kts 180°
2026-05-05 21:37 33.82066 -116.50570 420 ft 14 kts 179°
2026-05-05 21:37 33.81976 -116.50576 414 ft 9 kts 214°
2026-05-05 21:38 33.81968 -116.50653 418 ft 10 kts 272°
2026-05-05 21:38 33.81993 -116.50706 423 ft 5 kts 317°
2026-05-05 21:38 33.82014 -116.50729 425 ft 5 kts 317°
2026-05-05 21:38 33.82048 -116.50768 418 ft 9 kts 317°
2026-05-05 21:39 33.82082 -116.50769 423 ft 2 kts 49°
2026-05-05 21:39 33.82098 -116.50755 426 ft 3 kts 37°
2026-05-05 21:39 33.82102 -116.50751 425 ft 0 kts 37°